Total_Precipitation_Accumulation
0.96 0.98 0.88 1.00 1.03 0.99 0.94 0.89 0.78 0.68 0.60 0.43 0.42 0.38 0.30 0.21 0.17 0.19 0.24 0.20 0.27 0.36 0.37 0.26 0.15 0.08 0.07 0.11 0.15 0.22 0.29 0.34 0.47 0.60 0.53 0.51 0.44 0.31 0.22 0.14 0.10 0.09 0.06
0.85 0.99 0.91 0.88 0.95 1.12 1.13 1.00 0.87 0.79 0.70 0.52 0.44 0.39 0.33 0.28 0.23 0.24 0.28 0.22 0.16 0.20 0.27 0.27 0.21 0.13 0.10 0.11 0.16 0.23 0.29 0.33 0.39 0.50 0.55 0.58 0.56 0.42 0.31 0.21 0.16 0.14 0.12
0.79 0.94 0.87 0.75 0.73 0.89 1.04 1.12 1.07 0.93 0.77 0.61 0.50 0.43 0.32 0.28 0.26 0.30 0.30 0.26 0.19 0.13 0.17 0.23 0.23 0.18 0.16 0.17 0.19 0.21 0.25 0.29 0.37 0.46 0.52 0.53 0.52 0.52 0.45 0.33 0.27 0.29 0.33
0.57 0.75 0.79 0.68 0.67 0.83 1.01 1.13 1.16 1.10 0.89 0.76 0.66 0.55 0.44 0.32 0.26 0.29 0.27 0.26 0.23 0.16 0.16 0.19 0.22 0.23 0.22 0.20 0.20 0.20 0.23 0.27 0.32 0.39 0.44 0.40 0.35 0.35 0.35 0.35 0.37 0.42 0.46
0.49 0.68 0.81 0.82 0.82 0.89 0.98 1.05 1.17 1.15 1.06 0.87 0.73 0.57 0.46 0.39 0.29 0.26 0.25 0.26 0.27 0.21 0.19 0.16 0.16 0.17 0.22 0.25 0.21 0.20 0.21 0.23 0.23 0.26 0.27 0.27 0.24 0.24 0.26 0.29 0.32 0.35 0.37
0.60 0.76 0.93 1.03 1.12 1.11 1.12 1.26 1.48 1.42 1.17 1.03 0.92 0.65 0.45 0.37 0.30 0.30 0.25 0.22 0.24 0.26 0.24 0.16 0.11 0.08 0.13 0.20 0.25 0.19 0.20 0.21 0.19 0.22 0.23 0.20 0.18 0.19 0.19 0.21 0.24 0.25 0.26
0.77 0.93 1.11 1.31 1.41 1.26 1.23 1.40 1.62 1.71 1.45 1.24 1.15 0.92 0.67 0.44 0.33 0.33 0.32 0.25 0.24 0.26 0.30 0.32 0.20 0.14 0.14 0.17 0.17 0.15 0.18 0.23 0.23 0.25 0.27 0.24 0.19 0.17 0.15 0.14 0.13 0.16 0.19
0.88 0.92 1.09 1.25 1.30 1.29 1.28 1.33 1.49 1.71 1.61 1.42 1.39 1.51 1.20 0.87 0.48 0.31 0.34 0.31 0.27 0.27 0.28 0.30 0.32 0.24 0.17 0.17 0.08 0.07 0.11 0.19 0.26 0.25 0.28 0.29 0.24 0.17 0.13 0.11 0.10 0.11 0.13
1.18 1.15 1.16 1.28 1.34 1.41 1.35 1.31 1.34 1.51 1.57 1.49 1.49 1.79 1.51 1.18 1.02 0.60 0.39 0.41 0.40 0.38 0.35 0.35 0.36 0.34 0.27 0.19 0.10 0.05 0.07 0.10 0.19 0.23 0.28 0.32 0.28 0.19 0.14 0.12 0.11 0.13 0.12
1.49 1.46 1.46 1.53 1.45 1.38 1.29 1.26 1.26 1.36 1.56 1.55 1.51 1.45 1.35 1.22 1.32 1.06 0.65 0.49 0.52 0.48 0.46 0.43 0.41 0.41 0.41 0.31 0.23 0.13 0.08 0.07 0.14 0.22 0.30 0.31 0.27 0.20 0.16 0.15 0.15 0.14 0.13
2.08 1.99 1.92 1.75 1.54 1.43 1.38 1.41 1.37 1.40 1.47 1.47 1.43 1.38 1.37 1.28 1.05 0.99 0.94 0.74 0.59 0.51 0.51 0.51 0.52 0.48 0.48 0.46 0.38 0.29 0.19 0.09 0.12 0.23 0.31 0.35 0.33 0.27 0.19 0.14 0.13 0.13 0.11
2.03 1.97 1.84 1.61 1.42 1.33 1.37 1.45 1.44 1.44 1.43 1.44 1.38 1.26 1.21 1.16 1.04 1.05 0.93 0.92 0.91 0.64 0.51 0.48 0.50 0.50 0.48 0.53 0.60 0.65 0.45 0.28 0.16 0.20 0.27 0.35 0.40 0.39 0.31 0.22 0.15 0.13 0.12
1.42 1.45 1.45 1.41 1.35 1.29 1.34 1.49 1.53 1.52 1.51 1.48 1.38 1.28 1.29 1.18 1.22 1.31 1.21 1.07 0.98 0.70 0.52 0.41 0.40 0.46 0.49 0.52 0.67 0.85 0.68 0.52 0.33 0.23 0.23 0.25 0.30 0.38 0.42 0.38 0.32 0.25 0.21
1.24 1.25 1.32 1.32 1.31 1.31 1.31 1.35 1.44 1.53 1.53 1.47 1.42 1.45 1.40 1.25 1.32 1.28 1.21 1.25 1.05 0.83 0.61 0.38 0.34 0.38 0.43 0.48 0.71 0.91 0.62 0.59 0.46 0.34 0.28 0.24 0.21 0.23 0.29 0.38 0.46 0.47 0.45
0.93 1.04 1.14 1.20 1.16 1.17 1.20 1.28 1.39 1.44 1.50 1.53 1.52 1.52 1.50 1.43 1.44 1.39 1.42 1.34 1.20 0.98 0.74 0.51 0.41 0.34 0.40 0.46 0.71 0.70 0.57 0.58 0.53 0.42 0.33 0.27 0.21 0.18 0.19 0.23 0.28 0.32 0.38
0.82 0.89 0.86 0.82 0.81 0.86 0.88 0.97 1.13 1.21 1.26 1.32 1.33 1.37 1.38 1.39 1.44 1.43 1.46 1.46 1.35 1.13 0.93 0.72 0.60 0.50 0.55 0.53 0.64 0.56 0.60 0.74 0.63 0.51 0.39 0.30 0.23 0.19 0.16 0.15 0.15 0.15 0.17
0.52 0.60 0.55 0.52 0.58 0.62 0.59 0.66 0.75 0.86 0.95 1.00 1.02 1.04 1.10 1.17 1.24 1.26 1.35 1.38 1.37 1.27 0.96 0.83 0.73 0.63 0.66 0.66 0.69 0.62 0.66 0.69 0.62 0.56 0.46 0.36 0.31 0.25 0.21 0.18 0.15 0.14 0.13
0.22 0.29 0.32 0.32 0.40 0.51 0.52 0.57 0.61 0.63 0.68 0.73 0.76 0.81 0.87 0.94 1.01 1.07 1.11 1.15 1.23 1.28 1.15 0.97 0.83 0.69 0.63 0.65 0.80 0.84 0.83 0.77 0.74 0.79 0.71 0.55 0.46 0.37 0.29 0.23 0.19 0.16 0.15
0.16 0.20 0.23 0.26 0.29 0.39 0.50 0.56 0.58 0.54 0.53 0.51 0.51 0.55 0.63 0.71 0.79 0.87 0.90 0.97 1.07 1.14 1.19 1.05 0.96 0.87 0.73 0.69 0.79 0.81 0.89 1.05 0.99 1.03 1.11 0.91 0.68 0.54 0.42 0.33 0.27 0.23 0.20
0.16 0.15 0.14 0.16 0.24 0.34 0.43 0.51 0.55 0.52 0.49 0.48 0.48 0.48 0.51 0.52 0.55 0.66 0.77 0.93 1.04 1.17 1.22 1.13 1.08 1.05 0.93 0.84 0.89 0.95 1.02 1.11 1.19 1.07 1.08 1.04 0.94 0.81 0.65 0.53 0.46 0.39 0.34
0.12 0.08 0.06 0.08 0.16 0.21 0.26 0.40 0.45 0.45 0.48 0.45 0.46 0.50 0.51 0.48 0.45 0.47 0.49 0.65 0.82 1.02 1.15 1.19 1.18 1.20 1.12 1.03 0.94 1.00 1.11 1.23 1.34 1.34 1.23 1.10 1.04 0.91 0.81 0.71 0.63 0.56 0.52
0.09 0.07 0.05 0.05 0.07 0.08 0.14 0.21 0.30 0.40 0.47 0.50 0.50 0.54 0.51 0.46 0.49 0.46 0.45 0.48 0.56 0.67 0.83 0.93 1.00 1.06 1.10 1.17 1.23 1.25 1.27 1.32 1.39 1.39 1.25 1.26 1.18 1.05 0.90 0.76 0.74 0.73 0.70
0.04 0.03 0.04 0.04 0.04 0.04 0.04 0.07 0.17 0.33 0.47 0.48 0.47 0.61 0.67 0.60 0.59 0.61 0.62 0.55 0.47 0.44 0.55 0.72 0.83 0.88 0.95 1.04 1.24 1.31 1.33 1.33 1.23 1.25 1.13 1.20 1.15 1.03 0.93 0.88 0.86 0.79 0.77
0.02 0.03 0.04 0.07 0.04 0.02 0.02 0.03 0.08 0.23 0.38 0.42 0.42 0.54 0.79 0.83 0.73 0.69 0.73 0.81 0.71 0.55 0.51 0.55 0.68 0.77 0.81 0.95 1.25 1.46 1.43 1.23 1.15 1.18 1.07 1.09 1.06 0.97 0.90 0.85 0.87 0.78 0.74
0.02 0.02 0.03 0.05 0.04 0.03 0.02 0.03 0.06 0.17 0.28 0.32 0.36 0.48 0.64 0.79 0.73 0.69 0.69 0.75 0.78 0.67 0.60 0.59 0.54 0.60 0.70 0.86 1.11 1.34 1.41 1.34 1.20 1.15 0.99 0.89 0.92 0.94 0.97 0.93 0.88 0.84 0.73
0.02 0.02 0.01 0.01 0.01 0.01 0.02 0.03 0.05 0.10 0.15 0.15 0.22 0.38 0.53 0.54 0.50 0.55 0.67 0.78 0.87 0.71 0.60 0.67 0.65 0.66 0.68 0.85 1.16 1.33 1.38 1.31 1.18 1.14 1.04 0.92 0.90 0.91 1.09 1.08 0.91 0.86 0.82